Weather History for KATS - November, 2012

Change the Weather History Date:

Monday, November 19, 2012

  Actual Average (KROW) Record (KROW)
Temperature  
Mean Temperature 53 °F 48 °F  
Max Temperature 69 °F 63 °F 88 °F (1996)
Min Temperature 37 °F 33 °F 13 °F (1921)
Degree Days  
Heating Degree Days 12 17  
Month to date heating degree days 258  
Since 1 July heating degree days 432  
Cooling Degree Days 0 0  
Month to date cooling degree days 0  
Year to date cooling degree days 1788  
Growing Degree Days 3 (Base 50)    
Moisture  
Dew Point 39 °F    
Average Humidity 67    
Maximum Humidity 100    
Minimum Humidity 27    
Precipitation  
Precipitation 0.00 in 0.01 in 2.54 in (1899)
Month to date precipitation 0.40  
Year to date precipitation 12.09  
Sea Level Pressure  
Sea Level Pressure 30.20 in    
Wind  
Wind Speed 5 mph (WSW)    
Max Wind Speed 13 mph    
Max Gust Speed -    
Visibility 9 miles    
Events Fog    
T = Trace of Precipitation, MM = Missing Value Source: NWS Daily Summary

Daily Weather History Graph

Daily Weather History Graph

Search for Another Location

Airport or City:

Trip Planner

Search our weather history database for the weather conditions in past years. The results will help you decide how hot, cold, wet, or windy it might be!

Date:

Astronomy

Nov. 19, 2012 Rise Set
Actual Time 6:32 AM MST 4:54 PM MST
Civil Twilight 6:05 AM MST 5:20 PM MST
Nautical Twilight 5:35 AM MST 5:50 PM MST
Astronomical Twilight 5:06 AM MST 6:20 PM MST
Moon 11:43 AM MST (11/19) 11:15 PM MST (11/19)
Length of Visible Light 11h 14m
Length of Day
10h 21m
Waxing Crescent, 41% of the Moon is Illuminated
Nov 19
Waxing Crescent
Nov 20
First Quarter
Nov 28
Full
Dec 6
Last Quarter
Dec 13
New

Hourly Weather History & Observations

Time (MST) Temp. Windchill Dew Point Humidity Pressure Visibility Wind Dir Wind Speed Gust Speed Precip Events Conditions
12:15 AM 44.6 °F - 44.6 °F 100% 30.16 in 10.0 mi Calm Calm - N/A   Clear
12:35 AM 44.6 °F - 44.6 °F 100% 30.16 in 10.0 mi Calm Calm - N/A   Clear
12:55 AM 42.8 °F 40.1 °F 42.8 °F 100% 30.16 in 10.0 mi SSW 4.6 mph - N/A   Clear
1:35 AM 41.0 °F 38.0 °F 41.0 °F 100% 30.17 in 0.8 mi South 4.6 mph - N/A   Mist
1:55 AM 42.8 °F 41.1 °F 42.8 °F 100% 30.17 in 0.2 mi SW 3.5 mph - N/A Fog Fog
2:15 AM 42.8 °F 38.6 °F 42.8 °F 100% 30.17 in 0.5 mi SSW 6.9 mph - N/A Fog Fog
2:55 AM 42.8 °F 38.0 °F 42.8 °F 100% 30.17 in 0.2 mi SSW 8.1 mph - N/A Fog Fog
3:15 AM 42.8 °F 38.6 °F 42.8 °F 100% 30.16 in 0.2 mi SW 6.9 mph - N/A Fog Fog
3:35 AM 41.0 °F 37.1 °F 41.0 °F 100% 30.17 in 2.5 mi WSW 5.8 mph - N/A   Partly Cloudy
3:55 AM 42.8 °F 38.0 °F 42.8 °F 100% 30.17 in 0.8 mi SW 8.1 mph - N/A   Scattered Clouds
4:15 AM 42.8 °F 38.0 °F 42.8 °F 100% 30.17 in 5.0 mi SW 8.1 mph - N/A   Clear
4:35 AM 41.0 °F 35.8 °F 41.0 °F 100% 30.17 in 10.0 mi West 8.1 mph - N/A   Clear
4:55 AM 41.0 °F 34.3 °F 41.0 °F 100% 30.17 in 10.0 mi West 11.5 mph - N/A   Clear
5:15 AM 39.2 °F 34.2 °F 39.2 °F 100% 30.18 in 9.0 mi NNE 6.9 mph - N/A   Clear
5:35 AM 39.2 °F 33.6 °F 39.2 °F 100% 30.19 in 10.0 mi NNE 8.1 mph - N/A   Clear
5:55 AM 37.4 °F 32.8 °F 37.4 °F 100% 30.19 in 10.0 mi North 5.8 mph - N/A   Clear
6:35 AM 37.4 °F 33.8 °F 37.4 °F 100% 30.20 in 10.0 mi NNW 4.6 mph - N/A   Clear
6:55 AM 39.2 °F 35.0 °F 39.2 °F 100% 30.21 in 10.0 mi NW 5.8 mph - N/A   Partly Cloudy
7:15 AM 39.2 °F 35.0 °F 39.2 °F 100% 30.22 in 10.0 mi WNW 5.8 mph - N/A   Partly Cloudy
7:35 AM 39.2 °F 35.0 °F 39.2 °F 100% 30.23 in 10.0 mi WNW 5.8 mph - N/A   Clear
7:55 AM 41.0 °F 37.1 °F 41.0 °F 100% 30.23 in 10.0 mi NW 5.8 mph - N/A   Clear
8:15 AM 44.6 °F 43.1 °F 44.6 °F 100% 30.24 in 10.0 mi NW 3.5 mph - N/A   Clear
8:35 AM 46.4 °F 45.2 °F 46.4 °F 100% 30.25 in 10.0 mi NNW 3.5 mph - N/A   Clear
8:55 AM 48.2 °F - 48.2 °F 100% 30.25 in 10.0 mi NW 3.5 mph - N/A   Clear
9:15 AM 50.0 °F - 48.2 °F 94% 30.26 in 10.0 mi Calm Calm - N/A   Clear
9:35 AM 53.6 °F - 48.2 °F 82% 30.27 in 10.0 mi Calm Calm - N/A   Clear
9:55 AM 55.4 °F - 48.2 °F 77% 30.26 in 10.0 mi Calm Calm - N/A   Clear
10:15 AM 55.4 °F - 46.4 °F 72% 30.26 in 10.0 mi SE 3.5 mph - N/A   Clear
10:35 AM 57.2 °F - 44.6 °F 63% 30.25 in 10.0 mi Calm Calm - N/A   Clear
10:55 AM 60.8 °F - 44.6 °F 55% 30.24 in 10.0 mi SSE 3.5 mph - N/A   Clear
11:15 AM 62.6 °F - 42.8 °F 48% 30.23 in 10.0 mi East 3.5 mph - N/A   Clear
11:35 AM 64.4 °F - 42.8 °F 45% 30.22 in 10.0 mi East 4.6 mph - N/A   Clear
11:55 AM 66.2 °F - 41.0 °F 40% 30.21 in 10.0 mi ESE 4.6 mph - N/A   Clear
12:15 PM 66.2 °F - 37.4 °F 35% 30.20 in 10.0 mi ENE 3.5 mph - N/A   Clear
12:35 PM 66.2 °F - 35.6 °F 32% 30.19 in 10.0 mi East 3.5 mph - N/A   Clear
12:55 PM 68.0 °F - 35.6 °F 30% 30.19 in 10.0 mi Calm Calm - N/A   Clear
1:15 PM 68.0 °F - 35.6 °F 30% 30.19 in 10.0 mi ESE 3.5 mph - N/A   Clear
1:35 PM 68.0 °F - 35.6 °F 30% 30.18 in 10.0 mi NE 5.8 mph - N/A   Clear
1:55 PM 68.0 °F - 35.6 °F 30% 30.17 in 10.0 mi SE 5.8 mph - N/A   Clear
2:15 PM 68.0 °F - 35.6 °F 30% 30.17 in 10.0 mi Calm Calm - N/A   Clear
2:35 PM 68.0 °F - 33.8 °F 28% 30.17 in 10.0 mi Calm Calm - N/A   Clear
2:55 PM 69.8 °F - 33.8 °F 27% 30.17 in 10.0 mi Calm Calm - N/A   Clear
3:15 PM 69.8 °F - 33.8 °F 27% 30.16 in 10.0 mi South 4.6 mph - N/A   Clear
3:55 PM 68.0 °F - 33.8 °F 28% 30.17 in 10.0 mi South 10.4 mph - N/A   Clear
4:15 PM 68.0 °F - 35.6 °F 30% 30.17 in 10.0 mi South 8.1 mph - N/A   Clear
4:35 PM 66.2 °F - 35.6 °F 32% 30.17 in 10.0 mi South 8.1 mph - N/A   Clear
4:55 PM 62.6 °F - 35.6 °F 37% 30.17 in 10.0 mi South 8.1 mph - N/A   Clear
5:15 PM 60.8 °F - 37.4 °F 42% 30.18 in 10.0 mi South 6.9 mph - N/A   Clear
5:35 PM 59.0 °F - 37.4 °F 45% 30.19 in 10.0 mi SE 3.5 mph - N/A   Clear
5:55 PM 57.2 °F - 37.4 °F 48% 30.20 in 10.0 mi SSW 6.9 mph - N/A   Clear
6:15 PM 57.2 °F - 37.4 °F 48% 30.20 in 10.0 mi South 5.8 mph - N/A   Clear
6:55 PM 55.4 °F - 37.4 °F 51% 30.21 in 10.0 mi SSE 3.5 mph - N/A   Clear
7:15 PM 55.4 °F - 37.4 °F 51% 30.21 in 10.0 mi SSW 3.5 mph - N/A   Clear
7:35 PM 50.0 °F - 37.4 °F 62% 30.21 in 10.0 mi South 3.5 mph - N/A   Clear
7:55 PM 50.0 °F - 37.4 °F 62% 30.21 in 10.0 mi SW 6.9 mph - N/A   Clear
8:15 PM 48.2 °F - 35.6 °F 62% 30.22 in 10.0 mi West 10.4 mph - N/A   Clear
8:35 PM 48.2 °F - 35.6 °F 62% 30.21 in 10.0 mi WNW 9.2 mph - N/A   Clear
8:55 PM 48.2 °F - 35.6 °F 62% 30.22 in 10.0 mi WNW 10.4 mph - N/A   Clear
9:15 PM 48.2 °F - 35.6 °F 62% 30.23 in 10.0 mi WNW 11.5 mph - N/A   Clear
9:35 PM 48.2 °F - 32.0 °F 54% 30.23 in 10.0 mi WNW 12.7 mph - N/A   Clear
9:55 PM 50.0 °F - 32.0 °F 50% 30.23 in 10.0 mi WNW 12.7 mph - N/A   Clear
10:15 PM 46.4 °F 43.5 °F 32.0 °F 57% 30.24 in 10.0 mi NNW 5.8 mph - N/A   Clear
10:35 PM 46.4 °F 44.3 °F 32.0 °F 57% 30.24 in 10.0 mi North 4.6 mph - N/A   Clear
10:55 PM 46.4 °F 45.2 °F 32.0 °F 57% 30.25 in 10.0 mi North 3.5 mph - N/A   Clear
11:15 PM 46.4 °F - 32.0 °F 57% 30.25 in 10.0 mi Calm Calm - N/A   Clear
11:35 PM 44.6 °F 42.2 °F 32.0 °F 61% 30.25 in 10.0 mi NNE 4.6 mph - N/A   Clear
11:55 PM 46.4 °F 44.3 °F 32.0 °F 57% 30.25 in 10.0 mi North 4.6 mph - N/A   Clear